Flag for Germany Weather past 2 weeks in Saarbrücken, Saarland, Germany

Now
32 °F

Partly sunny.


Feels Like: 24 °F
Forecast: 25 / 32 °F
Wind: 10 mph from West

Location: Saarbruecken / Ensheim

Current Time: Feb 1, 2015 at 1:16:38 PM

Latest Report: Feb 1, 2015 at 12:50 PM


Visibility: 5 mi

Pressure: 29.30 "Hg

Humidity: 100%

Dew point: 32 °F

Location of SaarbrückenLocation

Historic Weather in Saarbrücken — Graph

°F

Saarbrücken temperature yesterday

Maximum temperature yesterday: 34 °F (at 12:50 PM)
Minimum temperature yesterday: 30 °F (at 12:20 AM)
Average temperature yesterday: 32 °F

Past Weeks' High & Low Weather Summary

 TemperatureHumidityPressure
High39 °F (Jan 17, 12:20 PM)100% (Jan 18, 3:20 AM)30.42 "Hg (Jan 18, 3:20 AM)
Low23 °F (Jan 25, 3:50 AM)75% (Jan 18, 3:20 PM)28.74 "Hg (Jan 30, 12:20 AM)
Average32 °F94%29.81 "Hg
* Reported Jan 17 12:20 PM — Feb 1 12:20 PM, Saarbrücken, Weather by CustomWeather, © 2014

Note: Actual official high and low records may vary slightly from our data, if they occured in-between our weather recording intervals... More about our weather records

Advertising

Saarbrücken weather history for previous 24 hours

 ConditionsComfort  
Time TempWeatherWind HumidityBarometerVisibility
12:20 PM
Feb 1
32 °FPartly sunny.9 mph100%29.30 "Hg4 mi
11:50 AM32 °FLight snow. Ice fog.9 mph100%29.27 "Hg3 mi
11:20 AM32 °FLight snow. Ice fog.8 mph100%29.27 "Hg2 mi
10:50 AM32 °FLight snow. Ice fog.7 mph100%29.24 "Hg2 mi
10:20 AM32 °FLight snow. Partly sunny.3 mph93%29.24 "Hg1 mi
9:50 AM32 °FLight snow. Partly sunny.5 mph93%29.24 "Hg1 mi
9:20 AM32 °FSnow. Partly sunny.3 mph93%29.24 "Hg1 mi
8:50 AM30 °FLight snow. Partly sunny.5 mph100%29.21 "Hg4 mi
8:20 AM30 °FLight snow. Partly sunny.3 mph100%29.21 "Hg4 mi
7:50 AM30 °FLight snow. Passing clouds.6 mph100%29.21 "Hg4 mi
7:20 AM30 °FPartly cloudy.8 mph100%29.21 "Hg6 mi
6:50 AM32 °FPassing clouds.8 mph93%29.18 "Hg5 mi
6:20 AM32 °FChilly.9 mph93%29.18 "HgN/A
5:50 AM32 °FLow clouds.8 mph100%29.18 "Hg4 mi
5:20 AM32 °FLow clouds.7 mph100%29.15 "Hg4 mi
4:50 AM32 °FLow clouds.8 mph100%29.15 "Hg5 mi
4:20 AM32 °FLow clouds.8 mph100%29.15 "Hg5 mi
3:50 AM32 °FLow clouds.8 mph100%29.15 "Hg5 mi
3:20 AM32 °FLow clouds.8 mph100%29.12 "Hg5 mi
2:50 AM32 °FLight snow. Low clouds.7 mph100%29.12 "Hg5 mi
2:20 AM32 °FLight snow. Low clouds.9 mph100%29.12 "Hg5 mi
1:50 AM32 °FLight snow. Low clouds.10 mph100%29.09 "Hg4 mi
1:20 AM32 °FLight snow. Ice fog.12 mph100%29.09 "Hg2 mi
12:50 AM32 °FLight snow. Ice fog.15 mph100%29.09 "Hg2 mi
12:20 AM32 °FLight snow. Ice fog.14 mph100%29.09 "Hg2 mi
11:50 PM
Jan 31
32 °FSnow. Ice fog.13 mph100%29.09 "Hg1 mi
11:20 PM32 °FLight snow. Ice fog.10 mph100%29.09 "Hg2 mi
10:50 PM32 °FSnow. Low clouds.9 mph100%29.09 "Hg1 mi
10:20 PM32 °FSnow. Mostly cloudy.12 mph100%29.09 "Hg2 mi
9:50 PM32 °FLight snow. Overcast.12 mph100%29.09 "Hg2 mi
9:20 PM32 °FLight snow. Partly cloudy.9 mph100%29.12 "Hg4 mi
8:50 PM32 °FPartly cloudy.6 mph100%29.12 "HgN/A
8:20 PM32 °FPassing clouds.3 mph93%29.12 "HgN/A
7:50 PM32 °FPassing clouds.5 mph93%29.12 "HgN/A
7:20 PM32 °FPassing clouds.8 mph93%29.09 "HgN/A
6:50 PM32 °FPassing clouds.8 mph100%29.09 "HgN/A
6:20 PM32 °FPartly cloudy.7 mph100%29.09 "HgN/A
5:50 PM32 °FPassing clouds.7 mph100%29.09 "HgN/A
5:20 PM32 °FPartly sunny.8 mph100%29.09 "HgN/A
4:20 PM34 °FPartly sunny.8 mph93%29.06 "Hg4 mi
3:50 PM34 °FFog.8 mph93%29.03 "Hg3 mi
3:20 PM32 °FIce fog.8 mph100%29.03 "Hg2 mi
2:50 PM32 °FSnow. Ice fog.8 mph100%29.03 "Hg1 mi
2:20 PM32 °FLight snow. Ice fog.6 mph100%29.03 "Hg2 mi
1:50 PM34 °FLight snow. Fog.2 mph93%29.03 "Hg1 mi
1:20 PM34 °FLight snow. Fog.5 mph93%29.03 "Hg2 mi
Weather by CustomWeather, © 2014

See weather overviewHow to use our weather pages